Regional Weather Roundup
Issued by NWS

Home | Current Version | Previous Version | Text Only | Print | Product List | Glossary Off
Versions: 1 2 3 4 5 6 7 8 9 10 11 12 13 14 15 16 17 18 19 20 21 22 23 24 25 26 27 28 29 30 31 32 33 34 35 36 37 38 39 40 41 42 43 44 45 46 47 48 49 50

000
ASUS43 KFSD 021402
RWRSD

WEATHER ROUNDUP FOR SOUTH DAKOTA
NATIONAL WEATHER SERVICE SIOUX FALLS SD
800 AM CST FRI DEC 02 2016

NOTE: "FAIR" INDICATES FEW OR NO CLOUDS BELOW 12,000 FEET WITH NO
SIGNIFICANT WEATHER AND/OR OBSTRUCTIONS TO VISIBILITY.


SDZ001>005-009-010-012>017-021500-
NORTHWEST AND NORTH CENTRAL SOUTH DAKOTA

CITY           SKY/WX    TMP DP  RH WIND       PRES   REMARKS
BUFFALO          N/A     23  21  92 W5        30.07R WCI  17
FAITH            N/A     24  24 100 CALM      30.16R
MOBRIDGE       CLOUDY    28  23  81 SE3       30.18R
$$

SDZ012>016-024>037-041>051-057-063-072>074-021500-
SOUTHWEST AND SOUTH CENTRAL SOUTH DAKOTA

CITY           SKY/WX    TMP DP  RH WIND       PRES   REMARKS
RAPID CTY ARPT CLOUDY    25  21  85 CALM      30.14R
PIERRE         CLOUDY    28  26  92 CALM      30.20R
CUSTER         CLOUDY    21  16  81 W5        30.08R WCI  15
ELLSWORTH AFB  CLOUDY    27  22  80 W3        30.13R
PHILIP         CLOUDY    20  17  88 CALM      30.19R
PINE RIDGE     CLOUDY    13  11  92 CALM      30.16R
SPEARFISH      FAIR      28  19  69 W6        30.12S WCI  22
WINNER         CLOUDY    28  24  85 W3        30.20R
$$

SDZ004>011-016>023-039-040-021500-
NORTHEAST SOUTH DAKOTA

CITY           SKY/WX    TMP DP  RH WIND       PRES   REMARKS
ABERDEEN       CLOUDY    28  20  71 NW8       30.23R WCI  20
WATERTOWN      CLOUDY    26  22  84 NW6       30.17R WCI  19
BROOKINGS      CLOUDY    27  25  93 CALM      30.18S
SISSETON         N/A     28  21  75 N9        30.21R WCI  19
$$

SDZ017-020-022-023-036>040-048>070-021500-
SOUTHEAST SOUTH DAKOTA

CITY           SKY/WX    TMP DP  RH WIND       PRES   REMARKS
SIOUX FALLS    CLOUDY    31  28  89 N6        30.20R WCI  25
HURON          CLOUDY    28  27  96 NW6       30.22R WCI  22
CHAMBERLAIN    CLOUDY    31  30  97 W6        30.21R WCI  25
MITCHELL       CLOUDY    30  28  92 N5        30.23R WCI  25
YANKTON        CLOUDY    32  28  86 NW5       30.21R WCI  27
$$

ABBREVIATIONS USED IN REMARKS
   TC - TEMPERATURE IN CELSIUS
  WCI - WIND CHILL INDEX
   HX - HEAT INDEX
  VSB - VISIBILITY




USA.gov is the U.S. government's official web portal to all federal, state and local government web resources and services.